DELTA 1 DEB, 42555

Orbit data source: Space-Track

DELTA 1 DEB, 42555 is space debris in SSO originally from a launch on Sun, 23 Jul 1972 UTC launched from the Air Force Western Test Range (AFWTR). Debris objects in space refer to the collection of defunct objects orbiting the Earth. Examples of debris include non-operational satellites, rocket bodies, and fragments generated from explosions, collisions, or faulty payload assembly.

Loading next visibility...
Identifier
42555, 1972-058JN
Orbit
SSO
Country
Flag of USUS
Related business
Manufacturer
Unknown
Mission
Spacecraft
Bus & Motor
Unknown
Mass
Unknown
Launch date (UTC)
1972-07-23 (54 years ago)
Launch vehicle
Unknown
Launch site
Air Force Western Test Range (AFWTR)
Object type
Payload
Rocket body
Debris
Shape & HBR
Unknown shape, 0.1 m
Radar Cross Section
Medium (>0.1 m² and <1 m²)

Expand to show TLE details & history
Last TLE update: 1 week ago

TLE from 1 week ago
0 DELTA 1 DEB
1 42555U 72058JN  26154.58286022  .00000388  00000-0  31809-3 0  9997
2 42555  97.2265  73.0853 0541867 126.8869 238.3209 13.39694847611910
Epoch: 2026-06-03T13:59Z
TLE epoch observation values (Epoch: 2026-06-03T13:59:19.123Z)
Latitude
0.00005°
Longitude
-28.78379°
Altitude
1,341.674 km
Speed
7.077 km/s
True Right ascension
04h 52m 20s
True Declination
0° 00' 00"
Sunlit
Object was in daylight at epoch
Visualization orbit readout
Latitude
Unknown
Longitude
Unknown
Altitude
Unknown
Speed
Unknown
Apparent Right ascension
Unknown
Apparent Declination
Unknown
Sunlit
N/A
Visualization observer readout
Local Sidereal Time
13:45:11
Azimuth
Unknown
Elevation
Unknown
Doppler factor
Unknown
Orbital elements
Apogee altitude
1,513.236 km
Perigee altitude
701.98 km
Semi-major axis
7,485.745 km
Eccentricity
0.05419
Inclination
97.2265°
RAAN
73.0853°
Arg. of periapsis
126.8869°
True anomaly
233.22517°
Mean anomaly
238.3209°
Eccentric anomaly
235.75448°
Mean motion
3.35112 °/min
Orbital period
107.43 mins
BSTAR
0.00031809
Loading maneuver chart data...
Computing Atmospheric mass density...
Loading historical data...
Loading historical data...
Loading historical data...
Loading historical data...
Loading historical data...
Loading historical data...
Loading historical data...

Documentation

Showing up to 5 results
|